Weather History for KRYV - January, 2013

Change the Weather History Date:

Sunday, January 6, 2013

  Actual Average (KMSN) Record (KMSN)
Temperature  
Mean Temperature 24 °F 19 °F  
Max Temperature 34 °F 26 °F 58 °F (1880)
Min Temperature 13 °F 11 °F -24 °F (1912)
Degree Days  
Heating Degree Days 42 46  
Month to date heating degree days 276  
Since 1 July heating degree days 3155  
Cooling Degree Days 0 0  
Month to date cooling degree days 0  
Year to date cooling degree days 0  
Moisture  
Dew Point 19 °F    
Average Humidity 82    
Maximum Humidity 95    
Minimum Humidity 72    
Precipitation  
Precipitation 0.00 in 0.04 in 1.30 in (1885)
Month to date precipitation 0.25  
Year to date precipitation 0.25  
Snow  
Snow 0.00 in 0.40 in 11.00 in (1962)
Month to date snowfall 2.4  
Since 1 July snowfall 20.0  
Snow Depth -    
Sea Level Pressure  
Sea Level Pressure 30.07 in    
Wind  
Wind Speed 9 mph (West)    
Max Wind Speed 15 mph    
Max Gust Speed 20 mph    
Visibility 9 miles    
Events      
T = Trace of Precipitation, MM = Missing Value Source: NWS Daily Summary

Daily Weather History Graph

Daily Weather History Graph

Search for Another Location

Airport or City:

Trip Planner

Search our weather history database for the weather conditions in past years. The results will help you decide how hot, cold, wet, or windy it might be!

Date:

Astronomy

Jan. 06, 2013 Rise Set
Actual Time 7:26 AM CST 4:35 PM CST
Civil Twilight 6:54 AM CST 5:07 PM CST
Nautical Twilight 6:18 AM CST 5:43 PM CST
Astronomical Twilight 5:44 AM CST 6:17 PM CST
Moon 1:37 AM CST (1/6) 12:05 PM CST (1/6)
Length of Visible Light 10h 13m
Length of Day
9h 08m
Waning Crescent, 33% of the Moon is Illuminated
Jan 6
Waning Crescent
Jan 11
New
Jan 18
First Quarter
Jan 26
Full
Feb 3
Last Quarter

Hourly Weather History & Observations

Time (CST) Temp. Windchill Dew Point Humidity Pressure Visibility Wind Dir Wind Speed Gust Speed Precip Events Conditions
12:15 AM 34.0 °F 27.2 °F 31.1 °F 89% 29.84 in 10.0 mi SW 8.1 mph - N/A   Overcast
12:35 AM 34.0 °F 26.6 °F 30.9 °F 89% 29.84 in 10.0 mi WSW 9.2 mph - N/A   Overcast
12:55 AM 33.8 °F 27.0 °F 30.7 °F 89% 29.84 in 10.0 mi SW 8.1 mph - N/A   Overcast
1:35 AM 33.8 °F 24.8 °F 29.1 °F 83% 29.85 in 10.0 mi West 12.7 mph - N/A   Overcast
2:15 AM 31.5 °F 23.5 °F 25.7 °F 79% 29.86 in 10.0 mi West 9.2 mph - N/A   Overcast
2:35 AM 30.9 °F 22.2 °F 25.5 °F 80% 29.87 in 10.0 mi West 10.4 mph - N/A   Overcast
2:55 AM 30.2 °F 21.3 °F 25.2 °F 82% 29.87 in 10.0 mi West 10.4 mph - N/A   Overcast
3:15 AM 29.8 °F 20.9 °F 25.2 °F 83% 29.87 in 10.0 mi WNW 10.4 mph - N/A   Overcast
3:35 AM 29.3 °F 19.6 °F 23.0 °F 77% 29.87 in 10.0 mi WNW 11.5 mph - N/A   Overcast
4:15 AM 27.5 °F 18.0 °F 21.9 °F 80% 29.89 in 10.0 mi NW 10.4 mph 17.3 mph N/A   Overcast
4:35 AM 26.4 °F 15.5 °F 20.3 °F 78% 29.90 in 10.0 mi WNW 12.7 mph 19.6 mph N/A   Overcast
4:55 AM 24.8 °F 14.0 °F 19.2 °F 79% 29.91 in 10.0 mi WNW 11.5 mph 19.6 mph N/A   Scattered Clouds
5:15 AM 23.4 °F 12.2 °F 18.0 °F 80% 29.91 in 10.0 mi WNW 11.5 mph - N/A   Scattered Clouds
5:35 AM 23.0 °F 11.1 °F 17.1 °F 78% 29.92 in 10.0 mi West 12.7 mph 17.3 mph N/A   Mostly Cloudy
5:55 AM 22.6 °F 12.6 °F 16.7 °F 78% 29.93 in 10.0 mi WNW 9.2 mph - N/A   Overcast
6:15 AM 22.6 °F 14.3 °F 16.7 °F 78% 29.94 in 10.0 mi West 6.9 mph - N/A   Overcast
6:35 AM 23.0 °F 13.9 °F 17.2 °F 79% 29.94 in 10.0 mi WNW 8.1 mph - N/A   Overcast
6:55 AM 23.0 °F 12.4 °F 17.4 °F 79% 29.95 in 10.0 mi WNW 10.4 mph - N/A   Overcast
7:15 AM 23.0 °F 12.4 °F 17.6 °F 80% 29.96 in 10.0 mi WNW 10.4 mph - N/A   Overcast
7:35 AM 23.4 °F 13.5 °F 18.1 °F 80% 29.98 in 10.0 mi WNW 9.2 mph - N/A   Overcast
7:55 AM 23.4 °F 12.2 °F 18.5 °F 82% 29.99 in 10.0 mi WNW 11.5 mph 18.4 mph N/A   Overcast
8:35 AM 23.7 °F 12.1 °F 18.9 °F 82% 30.01 in 10.0 mi WNW 12.7 mph 17.3 mph N/A   Overcast
8:55 AM 24.1 °F 12.5 °F 19.2 °F 82% 30.02 in 10.0 mi WNW 12.7 mph 17.3 mph N/A   Overcast
9:15 AM 24.4 °F 11.9 °F 19.4 °F 81% 30.03 in 10.0 mi NW 15.0 mph 18.4 mph N/A   Overcast
9:35 AM 24.4 °F 13.5 °F 19.4 °F 81% 30.05 in 10.0 mi NW 11.5 mph 17.3 mph N/A   Overcast
9:55 AM 24.8 °F 15.3 °F 19.6 °F 81% 30.06 in 10.0 mi WNW 9.2 mph 16.1 mph N/A   Mostly Cloudy
10:15 AM 26.2 °F 14.7 °F 20.1 °F 78% 30.07 in 10.0 mi NW 13.8 mph 17.3 mph N/A   Mostly Cloudy
10:35 AM 26.6 °F 15.7 °F 20.5 °F 78% 30.08 in 10.0 mi NW 12.7 mph - N/A   Overcast
10:55 AM 26.4 °F 16.0 °F 20.8 °F 79% 30.08 in 10.0 mi WNW 11.5 mph - N/A   Overcast
11:15 AM 27.0 °F 16.1 °F 20.8 °F 78% 30.09 in 10.0 mi NW 12.7 mph - N/A   Overcast
11:35 AM 27.5 °F 15.9 °F 21.2 °F 77% 30.09 in 10.0 mi NW 15.0 mph - N/A   Overcast
11:55 AM 28.2 °F 20.2 °F 21.2 °F 75% 30.09 in 10.0 mi WNW 8.1 mph - N/A   Mostly Cloudy
12:15 PM 28.4 °F 19.7 °F 21.2 °F 74% 30.09 in 10.0 mi WNW 9.2 mph - N/A   Clear
12:35 PM 28.9 °F 18.6 °F 21.2 °F 73% 30.10 in 10.0 mi WNW 12.7 mph 17.3 mph N/A   Clear
1:15 PM 29.1 °F 20.0 °F 21.2 °F 72% 30.10 in 10.0 mi WNW 10.4 mph - N/A   Clear
1:35 PM 29.3 °F 20.2 °F 21.2 °F 72% 30.11 in 10.0 mi WNW 10.4 mph - N/A   Clear
1:55 PM 29.1 °F 20.0 °F 21.2 °F 72% 30.12 in 10.0 mi West 10.4 mph - N/A   Clear
2:15 PM 28.4 °F 19.1 °F 21.2 °F 74% 30.13 in 10.0 mi West 10.4 mph - N/A   Clear
2:35 PM 28.4 °F 19.7 °F 21.2 °F 74% 30.14 in 10.0 mi West 9.2 mph - N/A   Clear
3:15 PM 27.9 °F 21.5 °F 20.7 °F 74% 30.16 in 10.0 mi West 5.8 mph - N/A   Clear
3:35 PM 27.5 °F 20.2 °F 20.3 °F 74% 30.17 in 10.0 mi West 6.9 mph - N/A   Clear
3:55 PM 26.8 °F 19.3 °F 20.3 °F 77% 30.18 in 10.0 mi West 6.9 mph - N/A   Clear
4:15 PM 26.2 °F 20.7 °F 19.9 °F 77% 30.19 in 10.0 mi West 4.6 mph - N/A   Clear
4:35 PM 24.8 °F 17.9 °F 19.4 °F 80% 30.20 in 10.0 mi WSW 5.8 mph - N/A   Clear
4:55 PM 23.9 °F 16.8 °F 19.2 °F 82% 30.21 in 10.0 mi WSW 5.8 mph - N/A   Clear
5:15 PM 23.9 °F 16.8 °F 18.9 °F 81% 30.22 in 10.0 mi West 5.8 mph - N/A   Clear
6:15 PM 22.1 °F - 18.1 °F 85% 30.23 in 10.0 mi Calm Calm - N/A   Clear
6:55 PM 15.6 °F - 12.9 °F 89% 30.24 in 10.0 mi Calm Calm - N/A   Clear
7:15 PM 14.7 °F 9.0 °F 12.6 °F 91% 30.24 in 7.0 mi South 3.5 mph - N/A   Clear
7:35 PM 14.5 °F - 12.9 °F 93% 30.24 in 7.0 mi Calm Calm - N/A   Clear
7:55 PM 13.3 °F - 11.3 °F 92% 30.23 in 10.0 mi Calm Calm - N/A   Clear
8:15 PM 14.5 °F 8.8 °F 13.5 °F 95% 30.24 in 7.0 mi SSW 3.5 mph - N/A   Clear
8:35 PM 14.7 °F - 13.6 °F 95% 30.25 in 7.0 mi Calm Calm - N/A   Clear
8:55 PM 13.8 °F - 12.4 °F 94% 30.26 in 5.0 mi Calm Calm - N/A   Clear
9:15 PM 14.4 °F - 13.1 °F 95% 30.26 in 5.0 mi Calm Calm - N/A   Clear
9:35 PM 13.6 °F 7.7 °F 11.5 °F 91% 30.24 in 5.0 mi South 3.5 mph - N/A   Clear
10:35 PM 14.0 °F 8.2 °F 11.8 °F 91% 30.26 in 7.0 mi SSW 3.5 mph - N/A   Clear
10:55 PM 13.3 °F 4.2 °F 11.1 °F 91% 30.26 in 7.0 mi SSW 5.8 mph - N/A   Clear
11:35 PM 14.0 °F 5.1 °F 11.5 °F 90% 30.26 in 10.0 mi SSW 5.8 mph - N/A   Clear
11:55 PM 14.7 °F 5.9 °F 12.0 °F 89% 30.25 in 10.0 mi SSW 5.8 mph - N/A   Clear